QPF
0.00 0.00 0.00 0.00 0.00 0.00 0.00 0.00 0.00 0.00 0.00 0.00 0.00 0.00 0.00 0.00 0.00 0.00 0.00 0.00 0.00 0.00 0.00 0.00 0.00 0.00 0.00 0.00 0.01 0.00 0.01 0.02 0.04 0.05 0.09 0.14 0.18 0.18 0.16 0.15 0.18 0.24 0.32 0.33
0.00 0.00 0.00 0.00 0.00 0.00 0.00 0.00 0.00 0.00 0.00 0.00 0.00 0.00 0.00 0.00 0.00 0.00 0.00 0.00 0.00 0.00 0.00 0.00 0.00 0.00 0.00 0.01 0.01 0.01 0.02 0.06 0.13 0.21 0.31 0.37 0.37 0.33 0.29 0.31 0.38 0.47 0.52 0.49
0.00 0.00 0.00 0.00 0.00 0.00 0.00 0.00 0.00 0.00 0.00 0.00 0.00 0.00 0.00 0.00 0.00 0.00 0.00 0.00 0.00 0.00 0.00 0.00 0.00 0.00 0.00 0.01 0.01 0.02 0.05 0.13 0.29 0.44 0.57 0.59 0.54 0.47 0.42 0.43 0.49 0.56 0.59 0.58
0.00 0.00 0.00 0.00 0.00 0.00 0.00 0.00 0.00 0.00 0.00 0.00 0.00 0.00 0.00 0.00 0.00 0.00 0.00 0.00 0.00 0.00 0.00 0.00 0.00 0.00 0.00 0.01 0.03 0.04 0.08 0.24 0.45 0.59 0.72 0.76 0.70 0.62 0.59 0.59 0.61 0.62 0.60 0.54
0.00 0.00 0.00 0.00 0.00 0.00 0.00 0.00 0.00 0.00 0.00 0.00 0.00 0.00 0.00 0.00 0.00 0.00 0.00 0.00 0.00 0.00 0.00 0.00 0.00 0.00 0.01 0.03 0.04 0.05 0.14 0.35 0.58 0.73 0.85 0.86 0.83 0.77 0.69 0.64 0.63 0.58 0.47 0.31
0.00 0.00 0.00 0.00 0.00 0.00 0.00 0.00 0.00 0.00 0.00 0.00 0.00 0.00 0.00 0.00 0.00 0.00 0.00 0.00 0.00 0.00 0.00 0.00 0.00 0.01 0.02 0.04 0.05 0.09 0.23 0.49 0.73 0.86 0.91 0.87 0.78 0.67 0.59 0.52 0.41 0.32 0.22 0.14
0.00 0.00 0.00 0.00 0.00 0.00 0.00 0.00 0.00 0.00 0.00 0.00 0.00 0.00 0.00 0.00 0.00 0.00 0.00 0.00 0.00 0.00 0.00 0.00 0.00 0.02 0.05 0.07 0.12 0.22 0.41 0.64 0.80 0.85 0.79 0.69 0.59 0.47 0.36 0.27 0.18 0.11 0.06 0.03
0.00 0.00 0.00 0.00 0.00 0.00 0.00 0.00 0.00 0.00 0.00 0.00 0.00 0.00 0.00 0.00 0.00 0.00 0.00 0.00 0.01 0.01 0.00 0.01 0.01 0.03 0.08 0.12 0.17 0.29 0.47 0.62 0.65 0.60 0.58 0.52 0.43 0.32 0.21 0.12 0.06 0.02 0.01 0.00
0.00 0.00 0.00 0.00 0.00 0.00 0.00 0.00 0.00 0.00 0.00 0.00 0.00 0.00 0.00 0.00 0.00 0.01 0.00 0.01 0.01 0.01 0.01 0.02 0.02 0.04 0.09 0.13 0.18 0.26 0.35 0.42 0.40 0.37 0.36 0.32 0.24 0.15 0.09 0.05 0.02 0.01 0.00 0.00
0.00 0.00 0.00 0.00 0.00 0.00 0.00 0.00 0.00 0.00 0.00 0.00 0.00 0.00 0.00 0.00 0.00 0.01 0.01 0.01 0.01 0.02 0.03 0.03 0.04 0.06 0.09 0.12 0.16 0.20 0.22 0.23 0.24 0.23 0.21 0.17 0.11 0.06 0.03 0.02 0.01 0.00 0.00 0.00
0.00 0.00 0.00 0.00 0.00 0.00 0.00 0.00 0.00 0.00 0.00 0.00 0.00 0.00 0.00 0.01 0.01 0.01 0.01 0.01 0.01 0.02 0.03 0.03 0.04 0.05 0.07 0.08 0.10 0.11 0.14 0.17 0.18 0.16 0.12 0.08 0.05 0.03 0.01 0.01 0.00 0.00 0.00 0.00
0.00 0.00 0.00 0.00 0.00 0.00 0.00 0.00 0.00 0.00 0.00 0.00 0.00 0.00 0.00 0.01 0.01 0.01 0.01 0.01 0.02 0.02 0.03 0.03 0.03 0.03 0.04 0.06 0.07 0.09 0.10 0.10 0.09 0.07 0.05 0.03 0.02 0.01 0.01 0.00 0.00 0.00 0.00 0.00
0.00 0.00 0.00 0.00 0.00 0.00 0.00 0.00 0.00 0.00 0.00 0.00 0.00 0.00 0.01 0.01 0.01 0.01 0.01 0.01 0.01 0.01 0.02 0.02 0.03 0.03 0.04 0.06 0.06 0.06 0.05 0.04 0.03 0.03 0.02 0.01 0.01 0.00 0.00 0.00 0.00 0.00 0.00 0.00
0.00 0.00 0.00 0.00 0.00 0.00 0.00 0.00 0.00 0.00 0.00 0.00 0.00 0.01 0.02 0.02 0.01 0.01 0.01 0.01 0.01 0.01 0.02 0.02 0.03 0.03 0.03 0.03 0.03 0.03 0.02 0.01 0.01 0.01 0.01 0.00 0.00 0.00 0.00 0.00 0.00 0.00 0.00 0.00
0.00 0.00 0.00 0.00 0.00 0.00 0.00 0.00 0.00 0.00 0.00 0.00 0.01 0.02 0.02 0.02 0.02 0.01 0.01 0.01 0.01 0.02 0.02 0.03 0.02 0.02 0.02 0.02 0.01 0.01 0.01 0.00 0.00 0.00 0.00 0.00 0.01 0.01 0.01 0.01 0.01 0.01 0.01 0.00
0.00 0.00 0.00 0.00 0.00 0.00 0.00 0.00 0.00 0.00 0.01 0.01 0.02 0.03 0.04 0.03 0.03 0.03 0.03 0.02 0.02 0.02 0.02 0.01 0.01 0.01 0.01 0.01 0.00 0.00 0.00 0.01 0.01 0.01 0.02 0.02 0.02 0.02 0.02 0.01 0.01 0.01 0.00 0.00
0.00 0.00 0.00 0.01 0.01 0.01 0.02 0.01 0.01 0.01 0.02 0.03 0.04 0.03 0.05 0.06 0.06 0.08 0.07 0.06 0.04 0.03 0.02 0.01 0.00 0.00 0.00 0.00 0.00 0.01 0.02 0.02 0.02 0.03 0.03 0.04 0.04 0.05 0.04 0.02 0.01 0.00 0.00 0.00
0.00 0.00 0.00 0.00 0.01 0.02 0.02 0.01 0.02 0.02 0.04 0.07 0.07 0.07 0.07 0.08 0.08 0.06 0.05 0.04 0.03 0.01 0.01 0.00 0.00 0.00 0.00 0.01 0.01 0.02 0.03 0.04 0.06 0.07 0.07 0.07 0.07 0.05 0.02 0.01 0.00 0.00 0.00 0.00
0.01 0.01 0.01 0.00 0.00 0.01 0.01 0.00 0.01 0.02 0.03 0.04 0.05 0.06 0.07 0.06 0.05 0.03 0.02 0.01 0.01 0.00 0.00 0.00 0.00 0.00 0.01 0.01 0.03 0.04 0.06 0.08 0.09 0.09 0.07 0.05 0.04 0.02 0.00 0.00 0.00 0.00 0.00 0.00
0.01 0.01 0.02 0.01 0.01 0.01 0.01 0.00 0.01 0.01 0.01 0.02 0.02 0.02 0.02 0.02 0.02 0.01 0.01 0.00 0.00 0.00 0.00 0.00 0.00 0.00 0.01 0.02 0.03 0.05 0.06 0.06 0.05 0.03 0.02 0.01 0.01 0.00 0.00 0.00 0.00 0.00 0.00 0.00
0.01 0.01 0.01 0.01 0.01 0.01 0.01 0.01 0.01 0.01 0.01 0.02 0.02 0.01 0.01 0.00 0.00 0.00 0.00 0.00 0.00 0.00 0.00 0.00 0.00 0.01 0.01 0.02 0.02 0.02 0.03 0.02 0.01 0.00 0.00 0.00 0.00 0.00 0.00 0.00 0.00 0.00 0.00 0.00
0.01 0.01 0.01 0.01 0.01 0.01 0.01 0.01 0.01 0.01 0.02 0.03 0.02 0.01 0.00 0.00 0.00 0.00 0.00 0.00 0.00 0.00 0.00 0.00 0.01 0.01 0.01 0.01 0.01 0.01 0.01 0.01 0.00 0.00 0.00 0.00 0.00 0.00 0.00 0.00 0.00 0.00 0.00 0.00
0.00 0.01 0.01 0.01 0.01 0.01 0.01 0.01 0.02 0.02 0.02 0.02 0.01 0.00 0.00 0.00 0.00 0.00 0.00 0.00 0.00 0.00 0.01 0.01 0.01 0.01 0.01 0.01 0.00 0.00 0.00 0.00 0.00 0.00 0.00 0.00 0.00 0.00 0.00 0.00 0.00 0.00 0.00 0.00
0.00 0.00 0.00 0.00 0.01 0.01 0.01 0.02 0.02 0.02 0.02 0.01 0.00 0.00 0.00 0.00 0.00 0.00 0.00 0.00 0.00 0.01 0.01 0.01 0.01 0.00 0.00 0.00 0.00 0.00 0.00 0.00 0.00 0.00 0.00 0.00 0.00 0.00 0.00 0.00 0.00 0.00 0.00 0.00
0.00 0.00 0.00 0.00 0.00 0.01 0.01 0.00 0.00 0.01 0.01 0.01 0.00 0.00 0.00 0.00 0.00 0.00 0.00 0.00 0.00 0.01 0.01 0.01 0.00 0.00 0.00 0.00 0.00 0.00 0.00 0.00 0.00 0.00 0.00 0.00 0.00 0.00 0.00 0.00 0.00 0.00 0.00 0.00
0.00 0.00 0.00 0.00 0.00 0.00 0.00 0.00 0.00 0.01 0.01 0.01 0.01 0.00 0.00 0.00 0.00 0.00 0.01 0.01 0.01 0.01 0.01 0.00 0.00 0.00 0.00 0.00 0.00 0.00 0.00 0.00 0.00 0.00 0.00 0.00 0.00 0.00 0.00 0.00 0.00 0.00 0.00 0.00
MSLP
1012.18 1012.93 1013.46 1013.77 1013.89 1013.86 1013.76 1013.62 1013.47 1013.32 1013.16 1012.93 1012.63 1012.24 1011.75 1011.20 1010.61 1010.04 1009.53 1009.09 1008.75 1008.50 1008.33 1008.24 1008.20 1008.23 1008.35 1008.56 1008.90 1009.36 1009.96 1010.66 1011.43 1012.21 1012.95 1013.63 1014.21 1014.70 1015.11 1015.49 1015.87 1016.28 1016.76 1017.31
1012.42 1013.08 1013.52 1013.76 1013.85 1013.85 1013.82 1013.81 1013.80 1013.79 1013.73 1013.56 1013.25 1012.78 1012.18 1011.46 1010.70 1009.96 1009.30 1008.75 1008.33 1008.04 1007.85 1007.74 1007.70 1007.74 1007.85 1008.08 1008.44 1008.95 1009.62 1010.41 1011.29 1012.18 1013.05 1013.83 1014.50 1015.05 1015.51 1015.90 1016.28 1016.68 1017.15 1017.68
1012.38 1012.96 1013.32 1013.51 1013.61 1013.68 1013.78 1013.93 1014.10 1014.24 1014.30 1014.19 1013.87 1013.34 1012.61 1011.74 1010.81 1009.92 1009.12 1008.48 1008.00 1007.67 1007.48 1007.40 1007.38 1007.44 1007.59 1007.85 1008.24 1008.80 1009.53 1010.40 1011.36 1012.36 1013.32 1014.19 1014.94 1015.55 1016.03 1016.43 1016.81 1017.19 1017.63 1018.13
1012.08 1012.55 1012.85 1013.03 1013.17 1013.35 1013.61 1013.95 1014.32 1014.65 1014.83 1014.80 1014.50 1013.91 1013.08 1012.08 1011.01 1009.98 1009.08 1008.37 1007.85 1007.53 1007.36 1007.30 1007.34 1007.44 1007.63 1007.92 1008.35 1008.95 1009.72 1010.63 1011.65 1012.71 1013.73 1014.66 1015.45 1016.09 1016.59 1017.00 1017.37 1017.73 1018.14 1018.60
1011.57 1011.94 1012.18 1012.36 1012.57 1012.88 1013.32 1013.87 1014.45 1014.97 1015.30 1015.36 1015.09 1014.48 1013.58 1012.49 1011.33 1010.21 1009.24 1008.49 1007.96 1007.66 1007.53 1007.53 1007.61 1007.77 1007.99 1008.32 1008.77 1009.38 1010.15 1011.08 1012.10 1013.17 1014.20 1015.14 1015.95 1016.60 1017.11 1017.51 1017.87 1018.22 1018.60 1019.03
1010.99 1011.24 1011.40 1011.58 1011.86 1012.31 1012.93 1013.68 1014.47 1015.18 1015.66 1015.82 1015.61 1015.01 1014.09 1012.96 1011.75 1010.60 1009.61 1008.85 1008.35 1008.09 1008.01 1008.07 1008.21 1008.41 1008.67 1009.00 1009.45 1010.04 1010.79 1011.67 1012.65 1013.68 1014.67 1015.59 1016.37 1017.00 1017.51 1017.91 1018.26 1018.60 1018.96 1019.37
1010.46 1010.56 1010.65 1010.81 1011.15 1011.70 1012.48 1013.41 1014.37 1015.24 1015.86 1016.12 1015.97 1015.42 1014.53 1013.41 1012.22 1011.09 1010.14 1009.43 1008.98 1008.78 1008.76 1008.88 1009.07 1009.30 1009.57 1009.91 1010.32 1010.86 1011.54 1012.35 1013.25 1014.19 1015.11 1015.96 1016.69 1017.29 1017.77 1018.17 1018.52 1018.86 1019.23 1019.63
1010.08 1010.03 1010.02 1010.15 1010.51 1011.14 1012.02 1013.07 1014.16 1015.13 1015.85 1016.20 1016.13 1015.65 1014.82 1013.78 1012.66 1011.62 1010.75 1010.13 1009.77 1009.64 1009.70 1009.87 1010.10 1010.35 1010.63 1010.93 1011.30 1011.77 1012.36 1013.06 1013.85 1014.68 1015.50 1016.26 1016.93 1017.49 1017.94 1018.33 1018.68 1019.03 1019.41 1019.82
1009.91 1009.72 1009.61 1009.69 1010.05 1010.70 1011.62 1012.72 1013.85 1014.87 1015.64 1016.04 1016.03 1015.63 1014.91 1013.98 1013.00 1012.09 1011.36 1010.86 1010.62 1010.59 1010.72 1010.95 1011.21 1011.47 1011.73 1012.00 1012.31 1012.70 1013.19 1013.78 1014.45 1015.17 1015.88 1016.55 1017.15 1017.66 1018.09 1018.47 1018.83 1019.19 1019.58 1020.01
1009.98 1009.66 1009.46 1009.49 1009.81 1010.44 1011.33 1012.39 1013.49 1014.49 1015.24 1015.65 1015.69 1015.37 1014.77 1013.99 1013.18 1012.45 1011.89 1011.56 1011.45 1011.53 1011.74 1012.02 1012.30 1012.57 1012.81 1013.04 1013.30 1013.61 1014.01 1014.50 1015.07 1015.68 1016.30 1016.89 1017.43 1017.90 1018.31 1018.68 1019.04 1019.41 1019.81 1020.25
1010.27 1009.86 1009.60 1009.58 1009.84 1010.39 1011.19 1012.15 1013.15 1014.04 1014.71 1015.09 1015.15 1014.90 1014.43 1013.82 1013.21 1012.69 1012.34 1012.19 1012.23 1012.42 1012.71 1013.04 1013.34 1013.60 1013.82 1014.02 1014.23 1014.49 1014.83 1015.24 1015.73 1016.26 1016.81 1017.34 1017.83 1018.27 1018.67 1019.03 1019.39 1019.76 1020.16 1020.59
1010.70 1010.27 1009.98 1009.92 1010.12 1010.58 1011.25 1012.05 1012.87 1013.60 1014.15 1014.46 1014.51 1014.33 1013.98 1013.56 1013.16 1012.87 1012.73 1012.77 1012.96 1013.27 1013.63 1013.99 1014.31 1014.56 1014.77 1014.94 1015.12 1015.34 1015.63 1016.00 1016.44 1016.93 1017.43 1017.93 1018.39 1018.81 1019.19 1019.55 1019.90 1020.27 1020.65 1021.05
1011.24 1010.83 1010.56 1010.49 1010.63 1010.97 1011.49 1012.10 1012.72 1013.26 1013.66 1013.87 1013.89 1013.76 1013.54 1013.30 1013.12 1013.05 1013.13 1013.35 1013.68 1014.09 1014.51 1014.90 1015.22 1015.47 1015.65 1015.81 1015.97 1016.17 1016.44 1016.79 1017.21 1017.67 1018.15 1018.63 1019.08 1019.49 1019.86 1020.22 1020.56 1020.90 1021.26 1021.62
1011.85 1011.51 1011.29 1011.22 1011.31 1011.55 1011.91 1012.32 1012.72 1013.06 1013.29 1013.40 1013.40 1013.32 1013.21 1013.15 1013.17 1013.32 1013.59 1013.98 1014.44 1014.93 1015.39 1015.79 1016.11 1016.34 1016.50 1016.64 1016.79 1016.98 1017.25 1017.59 1018.00 1018.46 1018.93 1019.40 1019.84 1020.25 1020.62 1020.97 1021.30 1021.62 1021.94 1022.26
1012.51 1012.26 1012.11 1012.05 1012.10 1012.25 1012.45 1012.67 1012.87 1013.02 1013.10 1013.12 1013.10 1013.07 1013.08 1013.18 1013.40 1013.73 1014.18 1014.71 1015.27 1015.82 1016.30 1016.70 1016.99 1017.19 1017.33 1017.45 1017.59 1017.78 1018.04 1018.38 1018.79 1019.24 1019.71 1020.18 1020.62 1021.02 1021.39 1021.73 1022.04 1022.34 1022.63 1022.90
1013.21 1013.06 1012.96 1012.92 1012.94 1012.99 1013.05 1013.11 1013.14 1013.13 1013.10 1013.05 1013.03 1013.06 1013.19 1013.44 1013.82 1014.32 1014.91 1015.55 1016.18 1016.75 1017.24 1017.61 1017.87 1018.04 1018.15 1018.24 1018.36 1018.54 1018.80 1019.14 1019.54 1019.98 1020.45 1020.90 1021.34 1021.73 1022.09 1022.42 1022.72 1023.00 1023.25 1023.49
1013.95 1013.87 1013.81 1013.76 1013.74 1013.70 1013.65 1013.58 1013.47 1013.35 1013.24 1013.17 1013.17 1013.28 1013.52 1013.90 1014.43 1015.06 1015.75 1016.46 1017.13 1017.72 1018.18 1018.52 1018.73 1018.86 1018.93 1019.00 1019.10 1019.27 1019.52 1019.84 1020.23 1020.66 1021.10 1021.54 1021.95 1022.33 1022.68 1022.99 1023.28 1023.54 1023.78 1023.98
1014.73 1014.66 1014.60 1014.53 1014.44 1014.33 1014.18 1014.01 1013.82 1013.64 1013.49 1013.43 1013.48 1013.67 1014.02 1014.53 1015.16 1015.89 1016.66 1017.41 1018.09 1018.66 1019.09 1019.38 1019.55 1019.63 1019.67 1019.72 1019.80 1019.95 1020.18 1020.49 1020.86 1021.26 1021.68 1022.08 1022.47 1022.83 1023.15 1023.45 1023.72 1023.97 1024.19 1024.38
1015.52 1015.42 1015.31 1015.18 1015.02 1014.83 1014.62 1014.38 1014.14 1013.94 1013.80 1013.78 1013.90 1014.18 1014.63 1015.23 1015.95 1016.75 1017.55 1018.31 1018.98 1019.51 1019.90 1020.15 1020.28 1020.33 1020.35 1020.38 1020.45 1020.59 1020.81 1021.09 1021.43 1021.80 1022.19 1022.56 1022.91 1023.24 1023.54 1023.82 1024.08 1024.31 1024.52 1024.69
1016.27 1016.10 1015.91 1015.70 1015.47 1015.21 1014.94 1014.66 1014.42 1014.23 1014.14 1014.18 1014.38 1014.75 1015.28 1015.96 1016.73 1017.56 1018.37 1019.11 1019.75 1020.24 1020.59 1020.80 1020.90 1020.93 1020.94 1020.97 1021.04 1021.18 1021.39 1021.66 1021.98 1022.32 1022.66 1023.00 1023.31 1023.61 1023.88 1024.13 1024.37 1024.59 1024.78 1024.94
1016.96 1016.69 1016.40 1016.10 1015.79 1015.48 1015.17 1014.89 1014.67 1014.52 1014.49 1014.61 1014.89 1015.33 1015.93 1016.65 1017.45 1018.27 1019.07 1019.78 1020.37 1020.82 1021.13 1021.31 1021.40 1021.43 1021.44 1021.48 1021.56 1021.71 1021.92 1022.19 1022.49 1022.80 1023.12 1023.42 1023.70 1023.96 1024.20 1024.43 1024.65 1024.85 1025.02 1025.15
1017.54 1017.17 1016.79 1016.41 1016.04 1015.69 1015.37 1015.11 1014.92 1014.83 1014.87 1015.06 1015.41 1015.91 1016.54 1017.29 1018.08 1018.88 1019.64 1020.30 1020.85 1021.26 1021.53 1021.70 1021.78 1021.82 1021.85 1021.91 1022.02 1022.19 1022.41 1022.68 1022.96 1023.26 1023.55 1023.82 1024.08 1024.31 1024.52 1024.73 1024.92 1025.09 1025.24 1025.35
1017.99 1017.54 1017.09 1016.65 1016.25 1015.89 1015.58 1015.35 1015.21 1015.19 1015.30 1015.55 1015.94 1016.48 1017.13 1017.86 1018.63 1019.39 1020.09 1020.70 1021.20 1021.57 1021.82 1021.97 1022.06 1022.12 1022.18 1022.27 1022.41 1022.59 1022.83 1023.10 1023.38 1023.67 1023.94 1024.19 1024.42 1024.62 1024.82 1025.00 1025.16 1025.31 1025.43 1025.51
1018.31 1017.81 1017.33 1016.87 1016.47 1016.12 1015.84 1015.66 1015.58 1015.61 1015.77 1016.07 1016.50 1017.04 1017.68 1018.38 1019.11 1019.81 1020.45 1021.01 1021.46 1021.79 1022.03 1022.18 1022.27 1022.35 1022.44 1022.56 1022.71 1022.92 1023.16 1023.43 1023.70 1023.98 1024.24 1024.47 1024.68 1024.87 1025.04 1025.20 1025.35 1025.48 1025.57 1025.62
1018.50 1018.01 1017.53 1017.09 1016.72 1016.41 1016.18 1016.05 1016.02 1016.11 1016.31 1016.63 1017.06 1017.59 1018.20 1018.86 1019.53 1020.17 1020.75 1021.26 1021.66 1021.97 1022.20 1022.35 1022.46 1022.55 1022.65 1022.78 1022.95 1023.15 1023.39 1023.65 1023.91 1024.17 1024.42 1024.64 1024.83 1025.01 1025.17 1025.32 1025.45 1025.55 1025.63 1025.66
1018.59 1018.13 1017.71 1017.33 1017.01 1016.76 1016.59 1016.52 1016.54 1016.66 1016.88 1017.21 1017.63 1018.13 1018.69 1019.30 1019.91 1020.49 1021.03 1021.49 1021.87 1022.16 1022.37 1022.52 1022.64 1022.73 1022.84 1022.96 1023.12 1023.31 1023.52 1023.76 1024.00 1024.24 1024.46 1024.67 1024.85 1025.02 1025.18 1025.31 1025.43 1025.53 1025.59 1025.60
Thickness
5691 5683 5681 5690 5701 5707 5711 5712 5713 5722 5736 5737 5737 5740 5755 5766 5766 5768 5772 5776 5780 5789 5799 5796 5795 5794 5791 5787 5781 5775 5766 5758 5749 5740 5733 5724 5714 5708 5702 5699 5695 5692 5686 5680
5675 5677 5691 5700 5700 5702 5704 5704 5708 5719 5731 5735 5731 5734 5752 5761 5763 5766 5770 5774 5780 5785 5787 5788 5791 5791 5790 5786 5779 5772 5764 5755 5746 5738 5728 5719 5708 5699 5692 5686 5683 5680 5675 5670
5673 5687 5698 5695 5693 5691 5693 5696 5703 5707 5714 5720 5722 5720 5739 5757 5760 5763 5767 5772 5777 5780 5782 5785 5786 5786 5784 5781 5777 5770 5761 5751 5742 5732 5719 5709 5698 5689 5680 5675 5673 5670 5666 5662
5674 5689 5693 5690 5690 5689 5684 5700 5701 5702 5696 5688 5703 5687 5720 5738 5742 5752 5756 5759 5765 5774 5781 5783 5782 5780 5779 5778 5773 5765 5755 5745 5735 5726 5715 5703 5691 5679 5672 5667 5662 5659 5656 5652
5673 5685 5686 5685 5691 5692 5692 5701 5697 5697 5690 5682 5688 5681 5699 5720 5731 5742 5746 5750 5755 5764 5772 5777 5777 5775 5772 5769 5763 5756 5746 5736 5726 5717 5707 5696 5685 5673 5664 5658 5653 5649 5646 5641
5679 5691 5691 5692 5700 5698 5697 5691 5680 5670 5667 5665 5683 5675 5686 5705 5718 5727 5736 5741 5747 5756 5762 5765 5764 5762 5758 5755 5751 5744 5736 5724 5714 5704 5693 5684 5675 5665 5656 5649 5644 5639 5636 5632
5670 5682 5691 5697 5692 5693 5686 5666 5647 5653 5645 5656 5685 5681 5684 5709 5717 5720 5724 5731 5739 5745 5748 5749 5748 5746 5743 5740 5735 5729 5722 5710 5701 5693 5682 5674 5665 5657 5650 5642 5636 5631 5627 5622
5651 5657 5682 5692 5689 5681 5676 5668 5647 5643 5646 5658 5677 5673 5688 5709 5715 5717 5718 5722 5728 5732 5734 5733 5732 5730 5727 5723 5718 5713 5707 5698 5691 5683 5674 5666 5657 5649 5641 5635 5629 5625 5620 5614
5649 5656 5687 5697 5702 5693 5675 5669 5678 5659 5656 5655 5662 5677 5691 5703 5706 5707 5708 5711 5715 5718 5719 5718 5715 5712 5709 5705 5701 5697 5692 5686 5678 5671 5665 5655 5647 5640 5633 5627 5621 5616 5610 5604
5660 5657 5680 5696 5699 5695 5691 5679 5658 5650 5640 5643 5662 5670 5671 5686 5693 5697 5699 5700 5702 5704 5704 5702 5699 5696 5692 5689 5686 5682 5677 5671 5664 5657 5650 5642 5635 5629 5622 5616 5610 5604 5598 5592
5664 5658 5669 5682 5683 5683 5678 5674 5666 5653 5656 5646 5645 5657 5676 5681 5688 5688 5688 5689 5690 5690 5689 5687 5683 5680 5677 5674 5671 5666 5660 5655 5649 5642 5635 5628 5621 5615 5610 5603 5597 5591 5585 5578
5657 5653 5652 5668 5685 5691 5685 5676 5663 5657 5654 5653 5651 5652 5677 5681 5683 5680 5677 5675 5675 5675 5674 5672 5670 5667 5664 5660 5656 5652 5646 5640 5633 5627 5621 5614 5608 5603 5596 5588 5582 5576 5570 5563
5651 5645 5643 5651 5659 5669 5672 5672 5666 5658 5648 5642 5644 5650 5672 5675 5672 5668 5664 5662 5661 5660 5659 5658 5656 5653 5649 5645 5641 5637 5631 5625 5619 5613 5607 5600 5594 5587 5579 5572 5566 5560 5553 5547
5647 5633 5631 5630 5636 5651 5657 5662 5664 5658 5643 5642 5646 5649 5658 5660 5658 5654 5650 5648 5647 5645 5643 5641 5638 5635 5632 5629 5625 5621 5615 5609 5604 5598 5591 5584 5576 5569 5562 5556 5550 5543 5537 5531
5631 5623 5628 5632 5640 5645 5643 5646 5654 5652 5649 5642 5641 5644 5647 5648 5645 5641 5638 5635 5633 5630 5627 5624 5620 5617 5613 5610 5607 5604 5599 5593 5587 5581 5574 5567 5560 5552 5546 5539 5533 5527 5521 5514
5610 5613 5618 5620 5628 5630 5629 5632 5638 5642 5643 5639 5638 5635 5639 5637 5634 5629 5625 5623 5619 5616 5611 5607 5604 5601 5597 5594 5591 5587 5582 5576 5571 5564 5556 5550 5543 5536 5530 5523 5517 5510 5503 5496
5592 5597 5598 5597 5608 5610 5604 5613 5618 5621 5625 5631 5628 5629 5628 5623 5620 5616 5614 5612 5608 5602 5595 5590 5585 5583 5580 5577 5574 5570 5565 5559 5554 5547 5540 5533 5527 5520 5514 5508 5500 5493 5486 5480
5584 5583 5578 5581 5587 5578 5596 5610 5611 5609 5611 5617 5619 5617 5615 5609 5600 5595 5594 5596 5593 5587 5579 5573 5569 5566 5562 5559 5556 5552 5547 5542 5536 5529 5523 5516 5510 5504 5497 5490 5483 5476 5470 5464
5574 5575 5569 5567 5572 5578 5589 5596 5597 5596 5595 5602 5603 5600 5596 5593 5589 5582 5576 5577 5573 5567 5561 5557 5553 5550 5546 5542 5538 5534 5529 5523 5518 5512 5506 5500 5494 5488 5480 5473 5466 5460 5455 5450
5566 5564 5560 5560 5565 5564 5577 5587 5593 5589 5581 5590 5590 5587 5583 5582 5576 5569 5559 5556 5552 5548 5544 5540 5537 5533 5529 5524 5521 5516 5511 5506 5500 5495 5490 5484 5478 5471 5463 5457 5451 5445 5440 5435
5551 5549 5548 5550 5554 5560 5571 5577 5582 5571 5572 5581 5578 5575 5572 5568 5560 5550 5543 5539 5535 5532 5528 5525 5521 5517 5513 5509 5505 5500 5495 5489 5484 5479 5473 5467 5460 5454 5447 5441 5436 5431 5426 5421
5542 5541 5541 5541 5546 5550 5562 5567 5566 5565 5569 5570 5567 5563 5557 5548 5541 5534 5529 5524 5521 5517 5514 5510 5507 5503 5498 5495 5491 5485 5479 5474 5469 5464 5458 5451 5445 5440 5433 5427 5422 5417 5412 5407
5538 5537 5536 5538 5539 5547 5550 5554 5557 5558 5559 5559 5554 5548 5542 5535 5529 5522 5517 5513 5509 5505 5502 5498 5495 5491 5486 5481 5477 5471 5465 5460 5455 5449 5442 5437 5431 5425 5420 5415 5409 5404 5398 5394
5536 5537 5535 5537 5541 5544 5546 5548 5549 5550 5550 5548 5543 5536 5532 5527 5519 5512 5507 5502 5498 5495 5491 5487 5483 5478 5473 5469 5465 5460 5455 5449 5443 5436 5429 5424 5418 5412 5407 5402 5397 5392 5388 5384
5532 5533 5533 5534 5537 5538 5540 5537 5536 5538 5536 5533 5529 5526 5521 5517 5509 5504 5497 5492 5488 5484 5479 5475 5470 5466 5461 5458 5455 5451 5445 5439 5432 5425 5418 5412 5406 5401 5396 5392 5387 5384 5380 5376
5522 5526 5527 5526 5526 5525 5527 5525 5527 5527 5525 5521 5518 5513 5509 5506 5500 5494 5488 5483 5478 5473 5469 5464 5460 5457 5453 5450 5446 5441 5436 5430 5422 5414 5407 5401 5396 5392 5388 5384 5380 5377 5374 5371